| time (UTC) | temp F | wind direction | speed MPH | gust MPH | rain 1hr in | rain 24hr in | rain mn in | humidity % | barometer mb |
| 20260503060108 | 47 | 94 | 3.0 | 4.0 | 0.00 | 0.00 | 0.00 | 64 | 1011.3 |
| 20260503055025 | 47 | 98 | 3.0 | 3.0 | 0.00 | 0.00 | 0.00 | 57 | 1011.6 |
| 20260503054604 | 46 | 101 | 3.0 | 3.0 | 0.00 | 0.00 | 0.00 | 59 | 1011.6 |
| 20260503054042 | 46 | 102 | 3.0 | 4.0 | 0.00 | 0.00 | 0.00 | 61 | 1011.6 |
| 20260503053601 | 46 | 99 | 3.0 | 4.0 | 0.00 | 0.00 | 0.00 | 58 | 1011.6 |
| 20260503053019 | 46 | 97 | 3.0 | 4.0 | 0.00 | 0.00 | 0.00 | 60 | 1011.7 |
| 20260503052538 | 46 | 97 | 3.0 | 4.0 | 0.00 | 0.00 | 0.00 | 60 | 1011.7 |
| 20260503052016 | 46 | 96 | 3.0 | 4.0 | 0.00 | 0.00 | 0.00 | 62 | 1011.9 |
| 20260503051535 | 46 | 100 | 3.0 | 3.0 | 0.00 | 0.00 | 0.00 | 60 | 1011.8 |
| 20260503051033 | 46 | 101 | 3.0 | 3.0 | 0.00 | 0.00 | 0.00 | 63 | 1011.9 |
| 20260503050552 | 46 | 94 | 2.0 | 3.0 | 0.00 | 0.00 | 0.00 | 64 | 1011.9 |
| 20260503050050 | 45 | 96 | 2.0 | 2.0 | 0.00 | 0.00 | 0.00 | 65 | 1011.9 |
| 20260503045529 | 45 | 97 | 2.0 | 3.0 | 0.00 | 0.00 | 0.00 | 66 | 1011.9 |
| 20260503045027 | 45 | 97 | 2.0 | 3.0 | 0.00 | 0.00 | 0.00 | 67 | 1012.0 |
| 20260503044526 | 45 | 101 | 2.0 | 2.0 | 0.00 | 0.00 | 0.00 | 68 | 1012.1 |
| 20260503044044 | 46 | 95 | 2.0 | 3.0 | 0.00 | 0.00 | 0.00 | 71 | 1012.0 |
| 20260503043523 | 46 | 90 | 2.0 | 2.0 | 0.00 | 0.00 | 0.00 | 67 | 1012.0 |
| 20260503043022 | 46 | 95 | 3.0 | 4.0 | 0.00 | 0.00 | 0.00 | 60 | 1012.1 |
| 20260503042540 | 46 | 97 | 3.0 | 3.0 | 0.00 | 0.00 | 0.00 | 61 | 1012.1 |
| 20260503042019 | 46 | 97 | 3.0 | 3.0 | 0.00 | 0.00 | 0.00 | 60 | 1012.2 |
| 20260503041517 | 46 | 97 | 3.0 | 3.0 | 0.00 | 0.00 | 0.00 | 62 | 1012.2 |
| 20260503041036 | 46 | 96 | 3.0 | 4.0 | 0.00 | 0.00 | 0.00 | 61 | 1012.3 |
| 20260503040534 | 47 | 98 | 3.0 | 3.0 | 0.00 | 0.00 | 0.00 | 56 | 1012.2 |
| 20260503040033 | 46 | 98 | 3.0 | 3.0 | 0.00 | 0.00 | 0.00 | 54 | 1012.2 |
| 20260503035532 | 46 | 96 | 3.0 | 3.0 | 0.00 | 0.00 | 0.00 | 54 | 1012.5 |
| 20260503035030 | 46 | 96 | 3.0 | 3.0 | 0.00 | 0.00 | 0.00 | 55 | 1012.5 |
| 20260503034549 | 46 | 94 | 3.0 | 3.0 | 0.00 | 0.00 | 0.00 | 57 | 1012.6 |
| 20260503034027 | 46 | 97 | 3.0 | 4.0 | 0.00 | 0.00 | 0.00 | 57 | 1012.6 |
| 20260503033526 | 45 | 100 | 3.0 | 3.0 | 0.00 | 0.00 | 0.00 | 54 | 1012.7 |
| 20260503033024 | 45 | 103 | 3.0 | 4.0 | 0.00 | 0.00 | 0.00 | 55 | 1012.7 |
| 20260503032523 | 45 | 104 | 3.0 | 3.0 | 0.00 | 0.00 | 0.00 | 58 | 1012.7 |
| 20260503032021 | 45 | 103 | 3.0 | 4.0 | 0.00 | 0.00 | 0.00 | 60 | 1012.7 |
| 20260503031520 | 45 | 102 | 3.0 | 4.0 | 0.00 | 0.00 | 0.00 | 60 | 1012.7 |
| 20260503031018 | 45 | 100 | 3.0 | 4.0 | 0.00 | 0.00 | 0.00 | 61 | 1012.8 |
| 20260503030517 | 45 | 102 | 3.0 | 4.0 | 0.00 | 0.00 | 0.00 | 57 | 1012.9 |
| 20260503030015 | 45 | 101 | 3.0 | 4.0 | 0.00 | 0.00 | 0.00 | 56 | 1013.0 |
| 20260503025534 | 45 | 103 | 3.0 | 4.0 | 0.00 | 0.00 | 0.00 | 54 | 1013.0 |
| 20260503025032 | 46 | 103 | 3.0 | 4.0 | 0.00 | 0.00 | 0.00 | 52 | 1013.0 |
| 20260503024531 | 46 | 101 | 3.0 | 3.0 | 0.00 | 0.00 | 0.00 | 51 | 1013.1 |
| 20260503024030 | 46 | 106 | 3.0 | 3.0 | 0.00 | 0.00 | 0.00 | 53 | 1013.1 |
| 20260503023529 | 46 | 104 | 3.0 | 3.0 | 0.00 | 0.00 | 0.00 | 55 | 1013.2 |
| 20260503023027 | 46 | 101 | 3.0 | 4.0 | 0.00 | 0.00 | 0.00 | 59 | 1013.2 |
| 20260503022546 | 47 | 98 | 3.0 | 4.0 | 0.00 | 0.00 | 0.00 | 53 | 1013.2 |
| 20260503022024 | 46 | 98 | 3.0 | 4.0 | 0.00 | 0.00 | 0.00 | 57 | 1013.3 |
| 20260503021523 | 47 | 99 | 3.0 | 4.0 | 0.00 | 0.00 | 0.00 | 60 | 1013.4 |
| 20260503021021 | 47 | 101 | 3.0 | 4.0 | 0.00 | 0.00 | 0.00 | 54 | 1013.3 |
| 20260503020519 | 48 | 99 | 3.0 | 4.0 | 0.00 | 0.00 | 0.00 | 51 | 1013.3 |
| 20260503020018 | 48 | 102 | 3.0 | 4.0 | 0.00 | 0.00 | 0.00 | 50 | 1013.3 |
| 20260503015516 | 48 | 105 | 3.0 | 4.0 | 0.00 | 0.00 | 0.00 | 50 | 1013.4 |
| 20260503015035 | 48 | 106 | 3.0 | 4.0 | 0.00 | 0.00 | 0.00 | 50 | 1013.5 |
| 20260503014534 | 48 | 101 | 3.0 | 4.0 | 0.00 | 0.00 | 0.00 | 51 | 1013.3 |
| 20260503014032 | 48 | 103 | 3.0 | 4.0 | 0.00 | 0.00 | 0.00 | 54 | 1013.3 |
| 20260503013531 | 49 | 99 | 3.0 | 4.0 | 0.00 | 0.00 | 0.00 | 55 | 1013.4 |
| 20260503013050 | 49 | 97 | 3.0 | 4.0 | 0.00 | 0.00 | 0.00 | 50 | 1013.4 |
| 20260503012528 | 50 | 97 | 3.0 | 3.0 | 0.00 | 0.00 | 0.00 | 48 | 1013.4 |
| 20260503012047 | 51 | 95 | 3.0 | 4.0 | 0.00 | 0.00 | 0.00 | 46 | 1013.3 |
| 20260503011525 | 51 | 104 | 3.0 | 4.0 | 0.00 | 0.00 | 0.00 | 43 | 1013.4 |
| 20260503011024 | 52 | 106 | 2.0 | 3.0 | 0.00 | 0.00 | 0.00 | 41 | 1013.3 |
| 20260503010522 | 52 | 96 | 2.0 | 3.0 | 0.00 | 0.00 | 0.00 | 42 | 1013.4 |
| 20260503010021 | 53 | 98 | 3.0 | 4.0 | 0.00 | 0.00 | 0.00 | 39 | 1013.4 |
| 20260503005519 | 53 | 99 | 3.0 | 4.0 | 0.00 | 0.00 | 0.00 | 39 | 1013.4 |
| 20260503005018 | 54 | 96 | 3.0 | 5.0 | 0.00 | 0.00 | 0.00 | 37 | 1013.3 |
| 20260503004516 | 54 | 96 | 3.0 | 4.0 | 0.00 | 0.00 | 0.00 | 36 | 1013.3 |
| 20260503004015 | 54 | 90 | 3.0 | 4.0 | 0.00 | 0.00 | 0.00 | 36 | 1013.4 |
| 20260503003534 | 55 | 93 | 3.0 | 5.0 | 0.00 | 0.00 | 0.00 | 35 | 1013.4 |
| 20260503003053 | 55 | 97 | 3.0 | 4.0 | 0.00 | 0.00 | 0.00 | 35 | 1013.5 |
| 20260503002531 | 55 | 97 | 3.0 | 5.0 | 0.00 | 0.00 | 0.00 | 35 | 1013.5 |
| 20260503002029 | 55 | 97 | 4.0 | 5.0 | 0.00 | 0.00 | 0.00 | 35 | 1013.4 |
| 20260503001548 | 56 | 92 | 5.0 | 11.0 | 0.00 | 0.00 | 0.00 | 33 | 1013.5 |
| 20260503001027 | 55 | 100 | 3.0 | 5.0 | 0.00 | 0.00 | 0.00 | 34 | 1013.6 |
| 20260503000525 | 56 | 95 | 4.0 | 8.0 | 0.00 | 0.00 | 0.00 | 34 | 1013.5 |
| 20260503000024 | 56 | 90 | 3.0 | 5.0 | 0.00 | 0.00 | 0.00 | 33 | 1013.6 |
| 20260502235603 | 56 | 93 | 3.0 | 5.0 | 0.00 | 0.00 | 0.00 | 34 | 1013.6 |
| 20260502235021 | 56 | 110 | 4.0 | 6.0 | 0.00 | 0.00 | 0.00 | 34 | 1013.6 |
| 20260502234519 | 57 | 87 | 4.0 | 6.0 | 0.00 | 0.00 | 0.00 | 33 | 1013.6 |
| 20260502234018 | 57 | 95 | 4.0 | 10.0 | 0.00 | 0.00 | 0.00 | 33 | 1013.6 |
| 20260502233517 | 57 | 90 | 5.0 | 10.0 | 0.00 | 0.00 | 0.00 | 33 | 1013.6 |
| 20260502233015 | 57 | 86 | 4.0 | 6.0 | 0.00 | 0.00 | 0.00 | 33 | 1013.7 |
| 20260502232534 | 57 | 98 | 4.0 | 6.0 | 0.00 | 0.00 | 0.00 | 33 | 1013.8 |
| 20260502232033 | 57 | 87 | 4.0 | 7.0 | 0.00 | 0.00 | 0.00 | 32 | 1013.7 |
| 20260502231531 | 58 | 112 | 4.0 | 8.0 | 0.00 | 0.00 | 0.00 | 32 | 1013.7 |
| 20260502231029 | 57 | 94 | 4.0 | 6.0 | 0.00 | 0.00 | 0.00 | 32 | 1013.8 |
| 20260502230528 | 57 | 95 | 4.0 | 10.0 | 0.00 | 0.00 | 0.00 | 32 | 1013.9 |
| 20260502230027 | 57 | 103 | 5.0 | 10.0 | 0.00 | 0.00 | 0.00 | 32 | 1013.9 |
| 20260502225525 | 58 | 101 | 4.0 | 8.0 | 0.00 | 0.00 | 0.00 | 32 | 1013.9 |
| 20260502225024 | 58 | 87 | 4.0 | 6.0 | 0.00 | 0.00 | 0.00 | 32 | 1013.9 |
| 20260502224523 | 59 | 97 | 4.0 | 10.0 | 0.00 | 0.00 | 0.00 | 32 | 1014.0 |
| 20260502224041 | 60 | 95 | 3.0 | 6.0 | 0.00 | 0.00 | 0.00 | 30 | 1014.0 |
| 20260502223519 | 59 | 102 | 3.0 | 7.0 | 0.00 | 0.00 | 0.00 | 32 | 1014.0 |
| 20260502223038 | 58 | 92 | 4.0 | 5.0 | 0.00 | 0.00 | 0.00 | 32 | 1014.0 |
| 20260502222517 | 58 | 92 | 5.0 | 10.0 | 0.00 | 0.00 | 0.00 | 31 | 1014.2 |
| 20260502222035 | 59 | 96 | 4.0 | 7.0 | 0.00 | 0.00 | 0.00 | 30 | 1014.1 |
| 20260502221534 | 59 | 85 | 6.0 | 11.0 | 0.00 | 0.00 | 0.00 | 30 | 1014.1 |
| 20260502221032 | 59 | 70 | 3.0 | 4.0 | 0.00 | 0.00 | 0.00 | 32 | 1014.1 |
| 20260502220531 | 59 | 71 | 2.0 | 5.0 | 0.00 | 0.00 | 0.00 | 31 | 1014.3 |
| 20260502220029 | 59 | 108 | 3.0 | 6.0 | 0.00 | 0.00 | 0.00 | 30 | 1014.4 |
| 20260502215528 | 59 | 93 | 4.0 | 11.0 | 0.00 | 0.00 | 0.00 | 30 | 1014.3 |
| 20260502215027 | 59 | 96 | 5.0 | 8.0 | 0.00 | 0.00 | 0.00 | 30 | 1014.5 |
| 20260502214525 | 58 | 98 | 4.0 | 7.0 | 0.00 | 0.00 | 0.00 | 30 | 1014.5 |
| 20260502214024 | 57 | 84 | 5.0 | 13.0 | 0.00 | 0.00 | 0.00 | 31 | 1014.6 |
| 20260502213522 | 58 | 95 | 6.0 | 11.0 | 0.00 | 0.00 | 0.00 | 31 | 1014.6 |
| 20260502213021 | 57 | 87 | 3.0 | 6.0 | 0.00 | 0.00 | 0.00 | 31 | 1014.6 |
| 20260502212519 | 57 | 91 | 4.0 | 7.0 | 0.00 | 0.00 | 0.00 | 31 | 1014.7 |
| 20260502212018 | 59 | 95 | 5.0 | 10.0 | 0.00 | 0.00 | 0.00 | 29 | 1014.7 |
| 20260502211516 | 59 | 92 | 4.0 | 6.0 | 0.00 | 0.00 | 0.00 | 29 | 1014.8 |
| 20260502211035 | 59 | 110 | 3.0 | 6.0 | 0.00 | 0.00 | 0.00 | 30 | 1014.9 |
| 20260502210534 | 58 | 100 | 3.0 | 6.0 | 0.00 | 0.00 | 0.00 | 30 | 1014.8 |
| 20260502210032 | 59 | 93 | 3.0 | 5.0 | 0.00 | 0.00 | 0.00 | 30 | 1014.9 |
| 20260502205531 | 59 | 97 | 3.0 | 6.0 | 0.00 | 0.00 | 0.00 | 29 | 1015.0 |
| 20260502205029 | 59 | 80 | 4.0 | 7.0 | 0.00 | 0.00 | 0.00 | 29 | 1015.0 |
| 20260502204528 | 59 | 81 | 4.0 | 10.0 | 0.00 | 0.00 | 0.00 | 30 | 1015.1 |
| 20260502204148 | 60 | 93 | 5.0 | 10.0 | 0.00 | 0.00 | 0.00 | 29 | 1015.1 |
| 20260502203525 | 59 | 101 | 4.0 | 8.0 | 0.00 | 0.00 | 0.00 | 30 | 1015.3 |
| 20260502203024 | 57 | 97 | 3.0 | 6.0 | 0.00 | 0.00 | 0.00 | 30 | 1015.4 |
| 20260502202603 | 57 | 92 | 4.0 | 7.0 | 0.00 | 0.00 | 0.00 | 31 | 1015.4 |
| 20260502202021 | 58 | 102 | 4.0 | 9.0 | 0.00 | 0.00 | 0.00 | 31 | 1015.4 |
| 20260502201520 | 59 | 99 | 5.0 | 9.0 | 0.00 | 0.00 | 0.00 | 30 | 1015.5 |
| 20260502201038 | 59 | 112 | 3.0 | 7.0 | 0.00 | 0.00 | 0.00 | 30 | 1015.6 |
| 20260502200516 | 58 | 90 | 5.0 | 9.0 | 0.00 | 0.00 | 0.00 | 29 | 1015.7 |
| 20260502200015 | 58 | 92 | 5.0 | 13.0 | 0.00 | 0.00 | 0.00 | 29 | 1015.7 |
| 20260502195534 | 59 | 86 | 5.0 | 14.0 | 0.00 | 0.00 | 0.00 | 29 | 1015.6 |
| 20260502195032 | 59 | 90 | 4.0 | 9.0 | 0.00 | 0.00 | 0.00 | 29 | 1015.8 |
| 20260502194531 | 59 | 100 | 3.0 | 6.0 | 0.00 | 0.00 | 0.00 | 30 | 1016.0 |
| 20260502194049 | 58 | 87 | 5.0 | 10.0 | 0.00 | 0.00 | 0.00 | 29 | 1016.0 |
| 20260502193528 | 58 | 71 | 4.0 | 6.0 | 0.00 | 0.00 | 0.00 | 29 | 1016.1 |
| 20260502193027 | 58 | 93 | 3.0 | 6.0 | 0.00 | 0.00 | 0.00 | 31 | 1016.2 |
| 20260502192525 | 58 | 91 | 4.0 | 8.0 | 0.00 | 0.00 | 0.00 | 30 | 1016.3 |
| 20260502192044 | 58 | 90 | 5.0 | 13.0 | 0.00 | 0.00 | 0.00 | 30 | 1016.2 |
| 20260502191522 | 59 | 104 | 4.0 | 7.0 | 0.00 | 0.00 | 0.00 | 29 | 1016.2 |
| 20260502191020 | 57 | 108 | 2.0 | 7.0 | 0.00 | 0.00 | 0.00 | 30 | 1016.3 |
| 20260502190540 | 56 | 92 | 5.0 | 10.0 | 0.00 | 0.00 | 0.00 | 29 | 1016.4 |
| 20260502190018 | 56 | 93 | 5.0 | 9.0 | 0.00 | 0.00 | 0.00 | 30 | 1016.6 |
| 20260502185536 | 56 | 102 | 4.0 | 7.0 | 0.00 | 0.00 | 0.00 | 32 | 1016.7 |
| 20260502185035 | 57 | 125 | 3.0 | 9.0 | 0.00 | 0.00 | 0.00 | 30 | 1016.7 |
| 20260502184553 | 57 | 98 | 5.0 | 9.0 | 0.00 | 0.00 | 0.00 | 31 | 1016.7 |
| 20260502184032 | 57 | 113 | 4.0 | 9.0 | 0.00 | 0.00 | 0.00 | 30 | 1016.9 |
| 20260502183531 | 55 | 96 | 4.0 | 7.0 | 0.00 | 0.00 | 0.00 | 31 | 1017.0 |
| 20260502183029 | 55 | 76 | 5.0 | 10.0 | 0.00 | 0.00 | 0.00 | 30 | 1017.1 |
| 20260502182528 | 56 | 93 | 4.0 | 8.0 | 0.00 | 0.00 | 0.00 | 30 | 1017.1 |
| 20260502182026 | 55 | 90 | 4.0 | 7.0 | 0.00 | 0.00 | 0.00 | 29 | 1017.2 |
| 20260502181545 | 56 | 86 | 3.0 | 9.0 | 0.00 | 0.00 | 0.00 | 31 | 1017.2 |
| 20260502181023 | 57 | 109 | 4.0 | 10.0 | 0.00 | 0.00 | 0.00 | 31 | 1017.1 |
| 20260502180522 | 57 | 101 | 4.0 | 8.0 | 0.00 | 0.00 | 0.00 | 30 | 1017.1 |
| 20260502164017 | 53 | 85 | 4.0 | 6.0 | 0.00 | 0.00 | 0.00 | 35 | 1018.2 |
| 20260502163515 | 52 | 92 | 3.0 | 6.0 | 0.00 | 0.00 | 0.00 | 36 | 1018.3 |
| 20260502163034 | 51 | 82 | 2.0 | 6.0 | 0.00 | 0.00 | 0.00 | 36 | 1018.4 |
| 20260502162613 | 51 | 102 | 3.0 | 6.0 | 0.00 | 0.00 | 0.00 | 35 | 1018.4 |
| 20260502162031 | 51 | 80 | 5.0 | 11.0 | 0.00 | 0.00 | 0.00 | 35 | 1018.6 |
| 20260502161530 | 52 | 105 | 5.0 | 9.0 | 0.00 | 0.00 | 0.00 | 34 | 1018.5 |
| 20260502161029 | 52 | 100 | 4.0 | 8.0 | 0.00 | 0.00 | 0.00 | 36 | 1018.6 |
| 20260502160547 | 51 | 92 | 4.0 | 6.0 | 0.00 | 0.00 | 0.00 | 36 | 1018.7 |
| 20260502152034 | 50 | 104 | 4.0 | 6.0 | 0.00 | 0.00 | 0.00 | 38 | 1019.2 |
| 20260502151553 | 49 | 63 | 4.0 | 7.0 | 0.00 | 0.00 | 0.00 | 40 | 1019.0 |
| 20260502151031 | 49 | 46 | 5.0 | 7.0 | 0.00 | 0.00 | 0.00 | 39 | 1019.1 |
| 20260502150529 | 48 | 83 | 4.0 | 6.0 | 0.00 | 0.00 | 0.00 | 39 | 1019.3 |
| 20260502130534 | 33 | 103 | 3.0 | 4.0 | 0.00 | 0.00 | 0.00 | 81 | 1020.0 |
| 20260502123526 | 28 | 41 | 3.0 | 5.0 | 0.00 | 0.00 | 0.00 | 95 | 1020.2 |
| 20260502123125 | 27 | 22 | 3.0 | 4.0 | 0.00 | 0.00 | 0.00 | 93 | 1020.2 |
| 20260502122523 | 27 | 31 | 3.0 | 4.0 | 0.00 | 0.00 | 0.00 | 94 | 1020.2 |
| 20260502122021 | 27 | 65 | 3.0 | 4.0 | 0.00 | 0.00 | 0.00 | 94 | 1020.1 |
| 20260502121520 | 27 | 83 | 2.0 | 4.0 | 0.00 | 0.00 | 0.00 | 94 | 1020.2 |
| 20260502121018 | 26 | 94 | 3.0 | 5.0 | 0.00 | 0.00 | 0.00 | 94 | 1020.1 |
| 20260502120517 | 26 | 94 | 3.0 | 4.0 | 0.00 | 0.00 | 0.00 | 94 | 1020.2 |
| 20260502115534 | 26 | 89 | 2.0 | 4.0 | 0.00 | 0.00 | 0.00 | 95 | 1020.1 |
| 20260502115033 | 25 | 89 | 2.0 | 3.0 | 0.00 | 0.00 | 0.00 | 95 | 1020.0 |
| 20260502114531 | 25 | 78 | 2.0 | 4.0 | 0.00 | 0.00 | 0.00 | 95 | 1020.1 |
| 20260502114030 | 25 | 91 | 3.0 | 4.0 | 0.00 | 0.00 | 0.00 | 95 | 1019.9 |
| 20260502113528 | 25 | 90 | 2.0 | 4.0 | 0.00 | 0.00 | 0.00 | 95 | 1020.0 |
| 20260502113107 | 25 | 140 | 3.0 | 4.0 | 0.00 | 0.00 | 0.00 | 95 | 1020.0 |
| 20260502112525 | 25 | 129 | 3.0 | 5.0 | 0.00 | 0.00 | 0.00 | 95 | 1019.9 |
| 20260502112024 | 25 | 115 | 2.0 | 5.0 | 0.00 | 0.00 | 0.00 | 95 | 1020.0 |
| 20260502111522 | 25 | 110 | 1.0 | 2.0 | 0.00 | 0.00 | 0.00 | 94 | 1019.9 |
| 20260502111021 | 25 | 104 | 2.0 | 4.0 | 0.00 | 0.00 | 0.00 | 94 | 1019.9 |
| 20260502110519 | 25 | 110 | 3.0 | 5.0 | 0.00 | 0.00 | 0.00 | 94 | 1019.9 |
| 20260502110018 | 25 | 152 | 3.0 | 5.0 | 0.00 | 0.00 | 0.00 | 94 | 1019.9 |
| 20260502105516 | 25 | 104 | 3.0 | 5.0 | 0.00 | 0.00 | 0.00 | 94 | 1019.9 |
| 20260502105115 | 25 | 116 | 2.0 | 3.0 | 0.00 | 0.00 | 0.00 | 94 | 1020.0 |
| 20260502104553 | 25 | 125 | 2.0 | 7.0 | 0.00 | 0.00 | 0.00 | 94 | 1020.0 |
| 20260502104032 | 25 | 140 | 4.0 | 6.0 | 0.00 | 0.00 | 0.00 | 94 | 1020.0 |
| 20260502103551 | 25 | 99 | 2.0 | 4.0 | 0.00 | 0.00 | 0.00 | 94 | 1020.1 |
| 20260502103029 | 25 | 56 | 4.0 | 7.0 | 0.00 | 0.00 | 0.00 | 94 | 1020.0 |
| 20260502102548 | 25 | 37 | 3.0 | 5.0 | 0.00 | 0.00 | 0.00 | 94 | 1020.1 |
| 20260502102026 | 25 | 84 | 3.0 | 5.0 | 0.00 | 0.00 | 0.00 | 93 | 1020.1 |
| 20260502101524 | 25 | 100 | 2.0 | 6.0 | 0.00 | 0.00 | 0.00 | 93 | 1020.1 |
| 20260502101023 | 25 | 92 | 2.0 | 3.0 | 0.00 | 0.00 | 0.00 | 93 | 1020.0 |
| 20260502100521 | 25 | 108 | 1.0 | 4.0 | 0.00 | 0.00 | 0.00 | 93 | 1020.0 |
| 20260502091526 | 26 | 112 | 2.0 | 3.0 | 0.00 | 0.00 | 0.00 | 93 | 1020.0 |
| 20260502091025 | 26 | 103 | 2.0 | 3.0 | 0.00 | 0.00 | 0.00 | 93 | 1019.9 |
| 20260502090523 | 26 | 108 | 2.0 | 3.0 | 0.00 | 0.00 | 0.00 | 93 | 1019.9 |
| 20260502071029 | 27 | 87 | 2.0 | 2.0 | 0.00 | 0.00 | 0.00 | 91 | 1020.0 |
| 20260502070528 | 27 | 89 | 2.0 | 2.0 | 0.00 | 0.00 | 0.00 | 90 | 1020.1 |
| 20260502070026 | 27 | 99 | 2.0 | 2.0 | 0.00 | 0.00 | 0.00 | 90 | 1020.2 |
| 20260502065525 | 27 | 102 | 2.0 | 2.0 | 0.00 | 0.00 | 0.00 | 90 | 1020.1 |
| 20260502065023 | 28 | 108 | 2.0 | 3.0 | 0.00 | 0.00 | 0.00 | 90 | 1020.2 |
| 20260502064522 | 28 | 103 | 2.0 | 3.0 | 0.00 | 0.00 | 0.00 | 90 | 1020.2 |
| 20260502064021 | 28 | 102 | 2.0 | 3.0 | 0.00 | 0.00 | 0.00 | 90 | 1020.3 |
| 20260502063539 | 28 | 99 | 2.0 | 3.0 | 0.00 | 0.00 | 0.00 | 90 | 1020.3 |
| 20260502063017 | 28 | 96 | 2.0 | 3.0 | 0.00 | 0.00 | 0.00 | 89 | 1020.3 |
| 20260502062516 | 28 | 100 | 2.0 | 3.0 | 0.00 | 0.00 | 0.00 | 89 | 1020.3 |
| 20260502062035 | 28 | 100 | 2.0 | 3.0 | 0.00 | 0.00 | 0.00 | 88 | 1020.3 |
| 20260502061533 | 28 | 96 | 2.0 | 3.0 | 0.00 | 0.00 | 0.00 | 89 | 1020.2 |